TimeCDT,TemperatureF,Dew PointF,Humidity,Sea Level PressureIn,VisibilityMPH,Wind Direction,Wind SpeedMPH,Gust SpeedMPH,PrecipitationIn,Events,Conditions,WindDirDegrees,DateUTC
12:11 AM,48.2,46.4,93,30.07,10.0,Calm,Calm,-,N/A,,Clear,0,2013-08-22 05:11:00
12:31 AM,48.2,46.4,93,30.07,10.0,Calm,Calm,-,N/A,,Clear,0,2013-08-22 05:31:00
12:51 AM,48.2,46.4,93,30.08,10.0,Calm,Calm,-,N/A,,Clear,0,2013-08-22 05:51:00
1:11 AM,48.2,46.4,93,30.08,10.0,Calm,Calm,-,N/A,,Clear,0,2013-08-22 06:11:00
1:31 AM,50.0,46.4,87,30.09,10.0,Calm,Calm,-,N/A,,Clear,0,2013-08-22 06:31:00
1:51 AM,48.2,46.4,93,30.09,10.0,Calm,Calm,-,N/A,,Clear,0,2013-08-22 06:51:00
2:11 AM,48.2,46.4,93,30.10,10.0,Calm,Calm,-,N/A,,Clear,0,2013-08-22 07:11:00
2:31 AM,46.4,44.6,93,30.11,10.0,Calm,Calm,-,N/A,,Clear,0,2013-08-22 07:31:00
2:51 AM,46.4,44.6,93,30.11,10.0,Calm,Calm,-,N/A,,Clear,0,2013-08-22 07:51:00
3:11 AM,46.4,44.6,93,30.12,10.0,Calm,Calm,-,N/A,,Clear,0,2013-08-22 08:11:00
3:31 AM,44.6,42.8,93,30.13,10.0,Calm,Calm,-,N/A,,Clear,0,2013-08-22 08:31:00
3:51 AM,44.6,42.8,93,30.13,10.0,Calm,Calm,-,N/A,,Clear,0,2013-08-22 08:51:00
4:11 AM,44.6,42.8,93,30.14,10.0,Calm,Calm,-,N/A,,Clear,0,2013-08-22 09:11:00
4:31 AM,44.6,42.8,93,30.14,10.0,Calm,Calm,-,N/A,,Clear,0,2013-08-22 09:31:00
4:51 AM,42.8,42.8,100,30.14,10.0,Calm,Calm,-,N/A,,Clear,0,2013-08-22 09:51:00
5:11 AM,42.8,41.0,93,30.15,10.0,Calm,Calm,-,N/A,,Clear,0,2013-08-22 10:11:00
5:31 AM,42.8,42.8,100,30.14,10.0,Calm,Calm,-,N/A,,Clear,0,2013-08-22 10:31:00
5:51 AM,42.8,39.2,87,30.15,10.0,Calm,Calm,-,N/A,,Clear,0,2013-08-22 10:51:00
6:11 AM,42.8,39.2,87,30.15,10.0,Calm,Calm,-,N/A,,Clear,0,2013-08-22 11:11:00
6:31 AM,42.8,39.2,87,30.16,10.0,Calm,Calm,-,N/A,,Clear,0,2013-08-22 11:31:00
6:51 AM,42.8,39.2,87,30.16,10.0,Calm,Calm,-,N/A,,Clear,0,2013-08-22 11:51:00
7:11 AM,42.8,41.0,93,30.17,10.0,Calm,Calm,-,N/A,,Clear,0,2013-08-22 12:11:00
7:31 AM,44.6,42.8,93,30.17,10.0,Calm,Calm,-,N/A,,Clear,0,2013-08-22 12:31:00
7:51 AM,46.4,44.6,93,30.17,10.0,Calm,Calm,-,N/A,,Clear,0,2013-08-22 12:51:00
8:11 AM,48.2,46.4,93,30.17,10.0,Calm,Calm,-,N/A,,Clear,0,2013-08-22 13:11:00
8:31 AM,53.6,51.8,94,30.17,10.0,Calm,Calm,-,N/A,,Clear,0,2013-08-22 13:31:00
8:51 AM,57.2,53.6,88,30.16,10.0,NNW,3.5,-,N/A,,Clear,330,2013-08-22 13:51:00
9:11 AM,62.6,57.2,82,30.17,10.0,NW,3.5,-,N/A,,Clear,320,2013-08-22 14:11:00
9:31 AM,66.2,59.0,78,30.17,10.0,NNW,3.5,-,N/A,,Clear,340,2013-08-22 14:31:00
9:51 AM,68.0,59.0,73,30.17,10.0,NW,6.9,-,N/A,,Clear,320,2013-08-22 14:51:00
10:11 AM,69.8,57.2,64,30.18,10.0,Calm,Calm,-,N/A,,Clear,0,2013-08-22 15:11:00
10:31 AM,69.8,53.6,56,30.18,10.0,North,4.6,-,N/A,,Clear,10,2013-08-22 15:31:00
10:51 AM,69.8,51.8,53,30.18,10.0,NNE,4.6,-,N/A,,Clear,20,2013-08-22 15:51:00
11:11 AM,71.6,53.6,53,30.18,10.0,North,3.5,-,N/A,,Clear,360,2013-08-22 16:11:00
11:31 AM,73.4,51.8,47,30.19,10.0,NNE,4.6,-,N/A,,Clear,30,2013-08-22 16:31:00
11:51 AM,73.4,51.8,47,30.19,10.0,Calm,Calm,-,N/A,,Clear,0,2013-08-22 16:51:00
12:11 PM,73.4,51.8,47,30.19,10.0,NW,5.8,-,N/A,,Clear,320,2013-08-22 17:11:00
12:31 PM,75.2,50.0,41,30.18,10.0,North,5.8,-,N/A,,Clear,350,2013-08-22 17:31:00
12:51 PM,75.2,48.2,38,30.18,10.0,North,4.6,-,N/A,,Clear,10,2013-08-22 17:51:00
1:11 PM,75.2,46.4,36,30.18,10.0,North,5.8,-,N/A,,Clear,360,2013-08-22 18:11:00
1:31 PM,75.2,46.4,36,30.17,10.0,North,3.5,-,N/A,,Scattered Clouds,360,2013-08-22 18:31:00
1:51 PM,77.0,48.2,36,30.17,10.0,NW,6.9,-,N/A,,Clear,310,2013-08-22 18:51:00
2:11 PM,77.0,46.4,34,30.17,10.0,Calm,Calm,-,N/A,,Clear,0,2013-08-22 19:11:00
2:31 PM,77.0,48.2,36,30.17,10.0,North,3.5,-,N/A,,Clear,360,2013-08-22 19:31:00
2:51 PM,78.8,46.4,32,30.17,10.0,North,5.8,-,N/A,,Clear,360,2013-08-22 19:51:00
3:11 PM,77.0,44.6,32,30.16,10.0,North,5.8,-,N/A,,Clear,360,2013-08-22 20:11:00
3:31 PM,77.0,44.6,32,30.16,10.0,North,4.6,-,N/A,,Clear,10,2013-08-22 20:31:00
3:51 PM,77.0,44.6,32,30.16,10.0,Calm,Calm,-,N/A,,Clear,0,2013-08-22 20:51:00
4:11 PM,77.0,44.6,32,30.16,10.0,North,8.1,-,N/A,,Clear,360,2013-08-22 21:11:00
4:31 PM,77.0,44.6,32,30.16,10.0,North,5.8,-,N/A,,Clear,350,2013-08-22 21:31:00
4:51 PM,77.0,44.6,32,30.16,10.0,NNE,4.6,-,N/A,,Clear,20,2013-08-22 21:51:00
5:11 PM,77.0,44.6,32,30.16,10.0,North,4.6,-,N/A,,Clear,10,2013-08-22 22:11:00
5:31 PM,75.2,44.6,34,30.15,10.0,North,5.8,-,N/A,,Clear,360,2013-08-22 22:31:00
5:51 PM,75.2,44.6,34,30.15,10.0,Calm,Calm,-,N/A,,Clear,0,2013-08-22 22:51:00
6:11 PM,77.0,44.6,32,30.15,10.0,Calm,Calm,-,N/A,,Clear,0,2013-08-22 23:11:00
6:31 PM,75.2,46.4,36,30.15,10.0,Calm,Calm,-,N/A,,Clear,0,2013-08-22 23:31:00
6:51 PM,75.2,46.4,36,30.15,10.0,Calm,Calm,-,N/A,,Clear,0,2013-08-22 23:51:00
7:11 PM,73.4,46.4,38,30.15,10.0,Calm,Calm,-,N/A,,Clear,0,2013-08-23 00:11:00
7:31 PM,66.2,48.2,52,30.15,10.0,Calm,Calm,-,N/A,,Clear,0,2013-08-23 00:31:00
7:51 PM,60.8,46.4,59,30.15,10.0,Calm,Calm,-,N/A,,Clear,0,2013-08-23 00:51:00
8:11 PM,57.2,46.4,67,30.15,10.0,Calm,Calm,-,N/A,,Clear,0,2013-08-23 01:11:00
8:31 PM,53.6,46.4,77,30.16,10.0,Calm,Calm,-,N/A,,Clear,0,2013-08-23 01:31:00
8:51 PM,53.6,46.4,77,30.16,10.0,Calm,Calm,-,N/A,,Clear,0,2013-08-23 01:51:00
9:11 PM,51.8,46.4,82,30.16,10.0,Calm,Calm,-,N/A,,Clear,0,2013-08-23 02:11:00
9:31 PM,51.8,46.4,82,30.16,10.0,Calm,Calm,-,N/A,,Clear,0,2013-08-23 02:31:00
9:51 PM,50.0,46.4,87,30.16,10.0,Calm,Calm,-,N/A,,Clear,0,2013-08-23 02:51:00
10:11 PM,48.2,44.6,87,30.17,10.0,Calm,Calm,-,N/A,,Clear,0,2013-08-23 03:11:00
10:31 PM,48.2,44.6,87,30.17,10.0,Calm,Calm,-,N/A,,Clear,0,2013-08-23 03:31:00
10:51 PM,46.4,44.6,93,30.17,10.0,Calm,Calm,-,N/A,,Clear,0,2013-08-23 03:51:00
11:11 PM,46.4,42.8,87,30.17,10.0,Calm,Calm,-,N/A,,Clear,0,2013-08-23 04:11:00
11:31 PM,46.4,42.8,87,30.17,10.0,Calm,Calm,-,N/A,,Clear,0,2013-08-23 04:31:00
11:51 PM,44.6,42.8,93,30.17,10.0,Calm,Calm,-,N/A,,Clear,0,2013-08-23 04:51:00